Location: Chena
(64.8152°N, 147.9227°W)
Time: 12:33:40
(UTC+00:00)

Vanguard 2 - All Passes

Search period start: 07 March 2021 00:00
Search period end: 17 March 2021 00:00
Orbit: 552 x 2938 km, 32.9° (Epoch: 07 March)

Date Brightness Start Highest point End Pass type
(mag) Time Alt. Az. Time Alt. Az. Time Alt. Az.
07 Mar - 13:16:52 10° S 13:23:22 14° SSE 13:30:32 10° SE visible
07 Mar - 15:22:29 10° SW 15:30:42 16° S 15:39:30 10° SSE visible
07 Mar - 17:33:57 10° SW 17:38:00 11° SSW 17:42:06 10° SSW daylight
08 Mar - 13:33:12 10° SSW 13:40:04 15° SSE 13:47:43 10° SE visible
08 Mar - 15:39:54 10° SW 15:47:26 15° S 15:55:31 10° SSE visible
09 Mar - 13:49:53 10° SSW 13:56:48 15° S 14:04:33 10° SE visible
09 Mar - 15:57:45 10° SW 16:04:09 14° SSW 16:11:00 10° S daylight
10 Mar - 12:03:47 10° SSE 12:06:38 11° SSE 12:09:40 10° SE visible
10 Mar - 14:06:53 10° SSW 14:13:34 15° S 14:21:02 10° SSE visible
10 Mar - 16:16:26 10° SW 16:20:52 12° SSW 16:25:31 10° S daylight
11 Mar - 12:19:26 10° S 12:23:18 12° SSE 12:27:33 10° SE visible
11 Mar - 14:24:15 10° SSW 14:30:21 14° S 14:37:08 10° SSE visible
12 Mar - 12:35:50 10° S 12:40:03 12° SSE 12:44:43 10° SSE visible
12 Mar - 14:42:06 10° SSW 14:47:08 13° S 14:52:38 10° S visible
13 Mar - 12:52:46 10° S 12:56:50 12° S 13:01:21 10° SSE visible
13 Mar - 15:01:02 10° SSW 15:03:56 11° SSW 15:06:58 10° S visible
14 Mar - 13:10:13 10° SSW 13:13:39 11° S 13:17:23 10° SSE visible
15 Mar - 13:28:48 10° S 13:30:29 10° S 13:32:15 10° S visible
